Regional Weather Roundup
Issued by NWS Northern Indiana

Home | Current Version | Previous Version | Graphics & Text | Print | Product List | Glossary On
Versions: 1 2 3 4 5 6 7 8 9 10 11 12 13 14 15 16 17 18 19 20 21 22 23 24 25 26 27 28 29 30 31 32 33 34 35 36 37 38 39 40 41 42 43 44 45 46 47 48 49 50
471
ASUS43 KIWX 221310
RWRIWX

KIWX WEATHER ROUNDUP
NATIONAL WEATHER SERVICE NORTHERN INDIANA
900 AM EDT SUN APR 22 2018

NOTE: "FAIR" INDICATES FEW OR NO CLOUDS BELOW 12,000 FEET WITH NO
SIGNIFICANT WEATHER AND/OR OBSTRUCTIONS TO VISIBILITY.

* THESE STATIONS ARE NOT UNDER NWS QUALITY CONTROL. THEY ALSO MAY NOT
  REPORT WEATHER SUCH AS PRECIPITATION OR FOG.

INZ001>027-221400-
NORTHERN INDIANA

CITY           SKY/WX    TMP DP  RH WIND       PRES   REMARKS
GARY*          CLOUDY    50  32  50 E3        30.37R
VALPARAISO     PTSUNNY   49  25  39 E8        30.37R
MICHIGAN CITY* FAIR      46  23  39 CALM      30.37S
LAPORTE*       FAIR      46  27  47 E8        30.37S
KNOX*          FAIR      46  23  39 E3        30.36R
SOUTH BEND     FAIR      47  19  33 E8        30.38R
GOSHEN         FAIR      45  24  43 E10       30.37S
MONTICELLO*    FAIR      46  20  36 E8        30.32S
LOGANSPORT*    FAIR      45  23  42 NE9       30.34F
ROCHESTER*     FAIR      46  21  36 E7        30.36S
WARSAW*        CLOUDY    45  21  39 E7        30.37R
AUBURN*        FAIR      43  27  52 NE10      30.38F
FORT WAYNE     PTSUNNY   44  24  45 E10       30.38R
HUNTINGTON*    FAIR      42  23  46 E6        30.37R
PERU/GRISSOM   CLOUDY    46  21  36 E9        30.33S
MARION*        PTSUNNY   42  25  50 CALM      30.35S

$$
INZ028>050-221400-
CENTRAL INDIANA

CITY           SKY/WX    TMP DP  RH WIND       PRES   REMARKS
LAFAYETTE      FAIR      46  26  45 E9        30.31S
KOKOMO*        CLOUDY    43  27  53 NE12      30.33F
MUNCIE*        CLOUDY    46  26  45 NE8       30.33S
INDIANAPOLIS   CLOUDY    49  26  41 E12       30.30S

$$
MIZ043>046-050>051-056>058-064>065-071>073-077>080-221400-
SOUTHWEST LOWER MICHIGAN

CITY           SKY/WX    TMP DP  RH WIND       PRES   REMARKS
BATTLE CREEK   FAIR      45  28  51 NE5       30.40R
BENTON HARBOR  FAIR      49  26  41 E6        30.39R
COLDWATER*     FAIR      47  22  37 E6        30.38F
HILLSDALE*     FAIR      46  21  36 E10       30.38S
HOLLAND        FAIR      45  32  60 E5        30.40S
GRAND RAPIDS   FAIR      46  30  53 SE3       30.40S
KALAMAZOO      FAIR      46  25  43 VRB3      30.40R
STURGIS*       FAIR      48  23  37 E8        30.38R
THREE RIVERS*  FAIR      47  24  40 E3        30.39R

$$
OHZ001>008-015>018-024>025-221400-
NORTHWEST OHIO

CITY           SKY/WX    TMP DP  RH WIND       PRES   REMARKS
WAUSEON*       FAIR      45  25  45 NE10      30.39S
DEFIANCE       FAIR      44  28  53 E5        30.39R
FINDLAY        FAIR      45  27  49 NE9       30.36S
TOLEDO EXPRESS FAIR      47  28  47 E10       30.39S
TOLEDO METCALF FAIR      46  32  58 NE10      30.40S
LIMA           FAIR      42  30  62 NE5       30.36R

$$
AND FOR LAKE MICHIGAN COASTAL AND OPEN LAKE BUOY OBSERVATIONS

STATION/POSITION TEMP    WIND        PRES    VSBY  WAVE
                 AIR SEA DIR/SP/G                  HT/PER
                 (F)     (DEG/KT/KT) (MB)    (MI)  (FT/S)
CALUMET HARBOR    44      60/  6/  8 1027.7R
MICHIGAN CITY     47     100/  5/  7   N/A
BURNS HARBOR      45      60/  5/  6 1028.8R
SAINT JOSEPH      51      CALM  /  8 1029.8

$$
&&




USA.gov is the U.S. government's official web portal to all federal, state and local government web resources and services.